FW8759 Weather Reports


time (UTC)temp
C
wind
direction
speed
KPH
gust
KPH
rain 1hr
cm
rain 24hr
cm
rain mn
cm
humidity
%
barometer
mb
20260901112946 20 332 0.0 0.0 0.00 0.00 0.00 99 1018.4
20260901112441 20 332 0.0 0.0 0.00 0.00 0.00 99 1018.2
20260901111936 20 332 0.0 0.0 0.00 0.00 0.00 99 1018.2
20260901111434 20 332 0.0 0.0 0.00 0.00 0.00 99 1018.0
20260901110932 20 332 0.0 0.0 0.00 0.00 0.00 99 1018.2
20260901110428 20 332 0.0 0.0 0.00 0.00 0.00 99 1018.2
20260901105925 20 332 0.0 0.0 0.00 0.00 0.00 99 1017.9
20260901105420 20 332 0.0 0.0 0.00 0.00 0.00 99 1017.9
20260901104915 20 332 0.0 0.0 0.00 0.00 0.00 99 1017.9
20260901104411 20 332 0.0 0.0 0.00 0.00 0.00 99 1017.8
20260901103906 20 332 0.0 0.0 0.00 0.00 0.00 99 1017.8
20260901103406 20 332 0.0 0.0 0.00 0.00 0.00 99 1017.9
20260901102901 20 332 0.0 0.0 0.00 0.00 0.00 99 1017.7
20260901102355 20 332 0.0 0.0 0.00 0.00 0.00 99 1018.2
20260901101851 20 332 0.0 0.0 0.00 0.00 0.00 99 1017.8
20260901101345 20 332 0.0 0.0 0.00 0.00 0.00 99 1017.9
20260901100844 20 332 0.0 0.0 0.00 0.00 0.00 99 1017.7
20260901100339 20 332 0.0 0.0 0.00 0.00 0.00 99 1017.9
20260901095839 21 332 1.6 1.6 0.00 0.00 0.00 99 1017.6
20260901095336 20 335 1.6 1.6 0.00 0.00 0.00 99 1017.8
20260901094830 20 355 4.8 4.8 0.00 0.00 0.00 99 1017.4
20260901094325 20 320 0.0 0.0 0.00 0.00 0.00 99 1017.6
20260901093820 20 320 0.0 0.0 0.00 0.00 0.00 99 1017.8
20260901093319 20 320 0.0 0.0 0.00 0.00 0.00 99 1017.3
20260901092816 20 320 0.0 0.0 0.00 0.00 0.00 99 1017.3
20260901092311 20 320 0.0 0.0 0.00 0.00 0.00 99 1017.4
20260901091807 20 320 0.0 0.0 0.00 0.00 0.00 99 1017.6
20260901091306 20 320 0.0 0.0 0.00 0.00 0.00 99 1017.3
20260901090802 20 320 0.0 0.0 0.00 0.00 0.00 99 1017.2
20260901090257 21 320 0.0 0.0 0.00 0.00 0.00 99 1017.3
20260901085753 21 320 0.0 0.0 0.00 0.00 0.00 99 1017.2
20260901085247 21 320 0.0 0.0 0.00 0.00 0.00 99 1017.4
20260901084744 21 320 0.0 0.0 0.00 0.00 0.00 99 1017.4
20260901084240 21 320 0.0 0.0 0.00 0.00 0.00 99 1017.4
20260901083740 21 320 0.0 0.0 0.00 0.00 0.00 99 1017.2
20260901083239 21 320 0.0 0.0 0.00 0.00 0.00 99 1017.2
20260901082738 21 317 0.0 0.0 0.00 0.00 0.00 99 1017.4
20260901082233 21 317 0.0 0.0 0.00 0.00 0.00 99 1017.6
20260901081729 21 317 0.0 0.0 0.00 0.00 0.00 99 1017.4
20260901081229 21 317 0.0 0.0 0.00 0.00 0.00 99 1017.4
20260901080724 21 317 0.0 0.0 0.00 0.00 0.00 98 1017.1
20260901080223 21 317 0.0 0.0 0.00 0.00 0.00 98 1017.3
20260901075722 21 317 0.0 0.0 0.00 0.00 0.00 98 1017.1
20260901075218 21 317 0.0 0.0 0.00 0.00 0.00 97 1017.4
20260901074712 21 317 0.0 0.0 0.00 0.00 0.00 96 1017.2
20260901074208 22 318 0.0 0.0 0.00 0.00 0.00 97 1017.3
20260901073704 22 318 0.0 0.0 0.00 0.00 0.00 97 1017.2
20260901073159 22 318 0.0 0.0 0.00 0.00 0.00 97 1017.3
20260901072654 22 318 0.0 0.0 0.00 0.00 0.00 97 1017.3
20260901072148 22 318 0.0 0.0 0.00 0.00 0.00 97 1017.2
20260901071643 22 318 0.0 0.0 0.00 0.00 0.00 96 1017.6
20260901071143 22 318 0.0 0.0 0.00 0.00 0.00 95 1017.6
20260901070637 22 318 0.0 0.0 0.00 0.00 0.00 95 1017.6
20260901070133 22 319 0.0 0.0 0.00 0.00 0.00 96 1017.6
20260901065631 22 320 0.0 0.0 0.00 0.00 0.00 96 1017.7
20260901065126 22 315 0.0 0.0 0.00 0.00 0.00 96 1017.8
20260901064623 22 316 0.0 0.0 0.00 0.00 0.00 96 1017.6
20260901064120 22 317 0.0 0.0 0.00 0.00 0.00 97 1017.7
20260901063616 22 316 0.0 0.0 0.00 0.00 0.00 96 1017.7
20260901063112 22 317 0.0 0.0 0.00 0.00 0.00 96 1017.6
20260901062608 22 317 0.0 0.0 0.00 0.00 0.00 95 1017.7
20260901062103 22 327 1.6 1.6 0.00 0.00 0.00 95 1017.7
20260901061600 22 321 1.6 1.6 0.00 0.00 0.00 96 1017.7
20260901061054 22 333 3.2 3.2 0.00 0.00 0.00 96 1017.9
20260901060548 22 336 1.6 1.6 0.00 0.00 0.00 96 1017.8
20260901060044 22 325 0.0 1.6 0.00 0.00 0.00 96 1018.0
20260901055539 22 334 1.6 1.6 0.00 0.00 0.00 96 1017.9
20260901055036 22 330 0.0 0.0 0.00 0.00 0.00 96 1018.0
20260901054533 22 332 0.0 1.6 0.00 0.00 0.00 97 1017.8
20260901054028 22 332 0.0 1.6 0.00 0.00 0.00 97 1017.9
20260901053524 22 335 3.2 3.2 0.00 0.00 0.00 98 1018.0
20260901053020 22 325 1.6 1.6 0.00 0.00 0.00 99 1017.8
20260901052520 22 327 1.6 1.6 0.00 0.00 0.00 99 1018.0
20260901052020 22 320 0.0 0.0 0.00 0.00 0.00 99 1018.1
20260901051515 22 312 0.0 0.0 0.00 0.00 0.00 99 1018.1
20260901051014 22 312 0.0 0.0 0.00 0.00 0.00 99 1018.0
20260901050509 22 312 0.0 0.0 0.00 0.00 0.00 99 1017.8
20260901050004 22 312 0.0 0.0 0.00 0.00 0.00 99 1017.9
20260901045459 22 312 0.0 0.0 0.00 0.00 0.00 99 1018.2
20260901044954 22 312 0.0 0.0 0.00 0.00 0.00 99 1018.0
20260901044450 22 312 0.0 0.0 0.00 0.00 0.00 99 1018.1
20260901043945 22 312 0.0 0.0 0.00 0.00 0.00 99 1018.1
20260901043442 22 312 0.0 0.0 0.00 0.00 0.00 99 1018.2
20260901042942 22 312 0.0 0.0 0.00 0.00 0.00 99 1017.9
20260901042441 22 312 1.6 1.6 0.00 0.00 0.00 99 1017.9
20260901041936 23 321 0.0 0.0 0.00 0.00 0.00 98 1017.7
20260901041432 23 321 0.0 0.0 0.00 0.00 0.00 98 1017.8
20260901040931 23 321 0.0 0.0 0.00 0.00 0.00 97 1017.8
20260901040426 23 321 0.0 0.0 0.00 0.00 0.00 97 1017.9
20260901035925 23 321 0.0 0.0 0.00 0.00 0.00 97 1017.7
20260901035424 23 321 0.0 0.0 0.00 0.00 0.00 96 1017.8
20260901034923 23 321 0.0 0.0 0.00 0.00 0.00 96 1017.9
20260901034418 23 321 0.0 0.0 0.00 0.00 0.00 96 1017.9
20260901033913 23 321 0.0 0.0 0.00 0.00 0.00 95 1017.9
20260901033412 23 321 0.0 0.0 0.00 0.00 0.00 94 1017.9
20260901032910 24 321 0.0 0.0 0.00 0.00 0.00 93 1017.8
20260901032410 24 321 0.0 0.0 0.00 0.00 0.00 93 1017.8
20260901031905 24 321 0.0 0.0 0.00 0.00 0.00 92 1017.7
20260901031401 24 322 0.0 0.0 0.00 0.00 0.00 91 1017.8
20260901030900 24 322 3.2 3.2 0.00 0.00 0.00 91 1017.7
20260901030356 25 322 1.6 1.6 0.00 0.00 0.00 90 1017.9
20260901025855 24 323 3.2 3.2 0.00 0.00 0.00 90 1017.8
20260901025350 24 323 1.6 1.6 0.00 0.00 0.00 89 1018.0
20260901024845 25 324 1.6 1.6 0.00 0.00 0.00 90 1017.8
20260901024344 24 324 1.6 1.6 0.00 0.00 0.00 89 1017.8
20260901023842 24 326 1.6 1.6 0.00 0.00 0.00 91 1017.7
20260901023338 24 326 1.6 1.6 0.00 0.00 0.00 90 1018.0
20260901022833 24 326 1.6 1.6 0.00 0.00 0.00 92 1017.8
20260901022329 24 326 0.0 0.0 0.00 0.00 0.00 93 1017.9
20260901021824 24 326 0.0 0.0 0.00 0.00 0.00 93 1017.9
20260901021320 24 326 0.0 0.0 0.00 0.00 0.00 92 1017.8
20260901020814 25 326 0.0 0.0 0.00 0.00 0.00 91 1017.9
20260901020309 25 326 0.0 0.0 0.00 0.00 0.00 91 1017.6
20260901015804 25 326 0.0 0.0 0.00 0.00 0.00 90 1017.6
20260901015300 25 326 0.0 0.0 0.00 0.00 0.00 90 1017.2
20260901014759 25 326 0.0 0.0 0.00 0.00 0.00 88 1017.3
20260901014255 25 326 0.0 0.0 0.00 0.00 0.00 89 1017.7
20260901013751 25 326 0.0 0.0 0.00 0.00 0.00 88 1017.2
20260901013246 25 326 0.0 0.0 0.00 0.00 0.00 89 1017.1
20260901012741 25 326 0.0 0.0 0.00 0.00 0.00 89 1017.3
20260901012241 25 326 0.0 0.0 0.00 0.00 0.00 89 1017.0
20260901011737 25 326 0.0 0.0 0.00 0.00 0.00 89 1016.9
20260901011232 25 326 0.0 0.0 0.00 0.00 0.00 88 1016.9
20260901010726 25 326 0.0 0.0 0.00 0.00 0.00 88 1017.0
20260901010221 26 326 0.0 0.0 0.00 0.00 0.00 87 1017.1
20260901005720 26 326 0.0 0.0 0.00 0.00 0.00 87 1016.9
20260901005216 26 326 0.0 1.6 0.00 0.00 0.00 88 1016.8
20260901004715 26 326 0.0 0.0 0.00 0.00 0.00 86 1016.7
20260901004209 26 333 0.0 0.0 0.00 0.00 0.00 87 1016.8
20260901003703 26 333 0.0 0.0 0.00 0.00 0.00 86 1016.7
20260901003203 26 334 0.0 1.6 0.00 0.00 0.00 85 1016.7
20260901002657 26 334 1.6 1.6 0.00 0.00 0.00 85 1016.6
20260901002152 26 334 0.0 0.0 0.00 0.00 0.00 84 1016.8
20260901001648 26 334 0.0 0.0 0.00 0.00 0.00 83 1016.8
20260901001142 26 334 0.0 0.0 0.00 0.00 0.00 82 1016.8
20260901000638 26 334 0.0 0.0 0.00 0.00 0.00 82 1016.8
20260901000133 26 334 0.0 0.0 0.00 0.00 0.00 82 1016.7
20260831235626 27 334 0.0 0.0 0.00 0.00 0.00 82 1016.7
20260831235122 27 335 0.0 0.0 0.00 0.00 0.00 81 1016.7
20260831234621 27 335 0.0 0.0 0.00 0.00 0.00 81 1016.6
20260831234117 27 335 0.0 0.0 0.00 0.00 0.00 80 1016.5
20260831233612 27 335 0.0 0.0 0.00 0.00 0.00 79 1016.6
20260831233108 27 335 0.0 0.0 0.00 0.00 0.00 78 1016.5
20260831232603 27 335 0.0 0.0 0.00 0.00 0.00 77 1016.5
20260831232059 28 335 0.0 0.0 0.00 0.00 0.00 75 1016.4
20260831231555 28 335 0.0 0.0 0.00 0.00 0.00 74 1016.4
20260831231050 28 335 0.0 0.0 0.00 0.00 0.00 73 1016.4
20260831230545 28 333 0.0 0.0 0.00 0.00 0.00 71 1016.5
20260831230040 28 321 0.0 0.0 0.00 0.00 0.00 72 1016.6
20260831225535 28 321 0.0 0.0 0.00 0.00 0.00 72 1016.6
20260831225030 28 321 0.0 0.0 0.00 0.00 0.00 69 1016.6
20260831224525 29 322 0.0 0.0 0.00 0.00 0.00 68 1016.8
20260831224020 29 322 0.0 0.0 0.00 0.00 0.00 66 1016.7
20260831223515 30 322 0.0 0.0 0.00 0.00 0.00 65 1016.7
20260831223012 29 322 0.0 0.0 0.00 0.00 0.00 62 1016.7
20260831222508 30 320 0.0 0.0 0.00 0.00 0.00 65 1016.7
20260831222007 30 320 0.0 0.0 0.00 0.00 0.00 63 1016.8
20260831221503 30 320 0.0 0.0 0.00 0.00 0.00 63 1016.9
20260831220958 30 321 1.6 1.6 0.00 0.00 0.00 58 1017.0
20260831220453 30 314 0.0 0.0 0.00 0.00 0.00 63 1016.9
20260831215948 30 314 0.0 0.0 0.00 0.00 0.00 61 1017.0
20260831215444 30 314 0.0 0.0 0.00 0.00 0.00 55 1017.1
20260831214940 30 314 0.0 0.0 0.00 0.00 0.00 61 1017.1
20260831214437 30 314 0.0 0.0 0.00 0.00 0.00 60 1017.1
20260831213933 31 314 0.0 0.0 0.00 0.00 0.00 56 1017.0
20260831213429 30 316 0.0 0.0 0.00 0.00 0.00 54 1016.9
20260831212929 31 318 0.0 0.0 0.00 0.00 0.00 58 1017.1
20260831212425 31 327 0.0 0.0 0.00 0.00 0.00 59 1016.7
20260831211924 31 327 0.0 1.6 0.00 0.00 0.00 55 1016.9
20260831211420 31 312 0.0 0.0 0.00 0.00 0.00 61 1017.2
20260831210914 31 312 0.0 0.0 0.00 0.00 0.00 60 1017.1
20260831210409 31 313 0.0 1.6 0.00 0.00 0.00 57 1017.2
20260831205905 31 327 1.6 1.6 0.00 0.00 0.00 57 1017.3
20260831205400 31 306 0.0 0.0 0.00 0.00 0.00 58 1017.3
20260831204855 31 306 0.0 0.0 0.00 0.00 0.00 55 1017.4
20260831204354 31 313 0.0 0.0 0.00 0.00 0.00 58 1017.0
20260831203854 31 324 0.0 0.0 0.00 0.00 0.00 54 1017.4
20260831203348 31 324 0.0 0.0 0.00 0.00 0.00 56 1017.2
20260831202846 31 324 0.0 0.0 0.00 0.00 0.00 55 1017.4
20260831202336 31 339 0.0 0.0 0.00 0.00 0.00 59 1017.3
20260831201836 31 307 3.2 3.2 0.00 0.00 0.00 61 1017.4
20260831201334 31 305 1.6 1.6 0.00 0.00 0.00 57 1017.4
20260831200831 31 276 4.8 4.8 0.00 0.00 0.00 57 1017.6
20260831200326 31 328 0.0 0.0 0.00 0.00 0.00 58 1017.6
20260831195821 31 329 1.6 1.6 0.00 0.00 0.00 61 1017.8
20260831195317 31 326 1.6 3.2 0.00 0.00 0.00 58 1017.8
20260831194812 31 292 0.0 0.0 0.00 0.00 0.00 59 1018.0
20260831194307 31 292 0.0 0.0 0.00 0.00 0.00 56 1017.8
20260831193806 31 291 0.0 0.0 0.00 0.00 0.00 59 1017.9
20260831193302 31 294 0.0 0.0 0.00 0.00 0.00 59 1017.9
20260831192756 31 295 1.6 1.6 0.00 0.00 0.00 58 1017.8
20260831192252 31 327 3.2 3.2 0.00 0.00 0.00 59 1018.2
20260831191748 31 326 0.0 0.0 0.00 0.00 0.00 59 1017.9
20260831191244 31 345 4.8 4.8 0.00 0.00 0.00 58 1018.2
20260831190739 32 328 1.6 1.6 0.00 0.00 0.00 58 1018.1
20260831190238 32 307 1.6 1.6 0.00 0.00 0.00 57 1018.2
20260831185733 32 322 1.6 1.6 0.00 0.00 0.00 57 1018.1
20260831185229 33 288 0.0 0.0 0.00 0.00 0.00 56 1018.3
20260831184728 33 274 1.6 1.6 0.00 0.00 0.00 55 1018.4
20260831184224 33 260 0.0 0.0 0.00 0.00 0.00 59 1018.5
20260831183723 33 260 0.0 0.0 0.00 0.00 0.00 56 1018.6
20260831183218 31 254 0.0 0.0 0.00 0.00 0.00 61 1018.6
20260831182717 32 290 1.6 3.2 0.00 0.00 0.00 60 1018.7
20260831182212 31 297 1.6 1.6 0.00 0.00 0.00 62 1018.6
20260831181712 30 314 0.0 1.6 0.00 0.00 0.00 62 1018.9
20260831181208 30 324 3.2 3.2 0.00 0.00 0.00 62 1018.8
20260831180702 31 293 3.2 3.2 0.00 0.00 0.00 66 1018.7
20260831180158 31 256 0.0 0.0 0.00 0.00 0.00 63 1018.9
20260831175657 31 226 1.6 1.6 0.00 0.00 0.00 62 1018.8
20260831175154 31 237 1.6 3.2 0.00 0.00 0.00 64 1019.0
20260831174654 31 292 0.0 0.0 0.00 0.00 0.00 63 1018.9
20260831174149 32 255 0.0 1.6 0.00 0.00 0.00 64 1018.9
20260831173647 32 285 0.0 0.0 0.00 0.00 0.00 61 1018.8
20260831173143 32 292 1.6 1.6 0.00 0.00 0.00 60 1019.0
20260831172643 32 292 0.0 1.6 0.00 0.00 0.00 64 1018.9
20260831172138 31 284 0.0 0.0 0.00 0.00 0.00 61 1019.1
20260831171633 31 284 0.0 1.6 0.00 0.00 0.00 63 1019.1
20260831171131 32 284 0.0 0.0 0.00 0.00 0.00 63 1019.0
20260831170626 30 284 0.0 0.0 0.00 0.00 0.00 66 1019.4
20260831170124 28 286 0.0 0.0 0.00 0.00 0.00 69 1019.4
20260831165619 28 286 0.0 0.0 0.00 0.00 0.00 73 1019.6
20260831165115 28 287 1.6 1.6 0.00 0.00 0.00 76 1019.6
20260831164611 30 286 0.0 0.0 0.00 0.00 0.00 70 1019.6
20260831164106 31 286 0.0 0.0 0.00 0.00 0.00 66 1019.4
20260831163601 31 284 1.6 3.2 0.00 0.00 0.00 66 1019.5
20260831163057 31 291 0.0 1.6 0.00 0.00 0.00 66 1019.6
20260831162556 30 292 0.0 0.0 0.00 0.00 0.00 67 1019.8
20260831162054 30 299 3.2 3.2 0.00 0.00 0.00 69 1019.6
20260831161550 30 299 0.0 0.0 0.00 0.00 0.00 69 1019.6
20260831161047 30 300 1.6 1.6 0.00 0.00 0.00 70 1019.5
20260831160545 30 300 1.6 1.6 0.00 0.00 0.00 69 1019.3
20260831160041 30 312 1.6 1.6 0.00 0.00 0.00 71 1019.6
20260831155535 28 313 1.6 1.6 0.00 0.00 0.00 73 1019.8
20260831155031 28 319 1.6 3.2 0.00 0.00 0.00 75 1019.7
20260831154527 27 317 0.0 0.0 0.00 0.00 0.00 80 1020.1
20260831154026 27 319 1.6 1.6 0.00 0.00 0.00 80 1020.0
20260831153526 30 318 1.6 1.6 0.00 0.00 0.00 76 1020.1
20260831153023 29 319 0.0 0.0 0.00 0.00 0.00 74 1019.9
20260831152518 27 321 0.0 0.0 0.00 0.00 0.00 79 1020.1
20260831152014 27 323 0.0 0.0 0.00 0.00 0.00 84 1019.9
20260831151513 27 323 0.0 1.6 0.00 0.00 0.00 81 1020.0
20260831151013 27 327 0.0 1.6 0.00 0.00 0.00 84 1020.1
20260831150509 27 340 3.2 3.2 0.00 0.00 0.00 81 1020.1
20260831150004 27 300 1.6 3.2 0.00 0.00 0.00 83 1020.1
20260831145459 27 299 1.6 1.6 0.00 0.00 0.00 81 1020.0
20260831144955 27 298 1.6 1.6 0.00 0.00 0.00 81 1019.8
20260831144450 26 299 0.0 0.0 0.00 0.00 0.00 85 1019.8
20260831143946 26 300 0.0 0.0 0.00 0.00 0.00 84 1019.8
20260831143440 26 301 0.0 1.6 0.00 0.00 0.00 86 1019.8
20260831142935 25 313 3.2 3.2 0.00 0.00 0.00 88 1019.8
20260831142427 25 327 0.0 1.6 0.00 0.00 0.00 89 1019.7
20260831141926 25 335 0.0 0.0 0.00 0.00 0.00 88 1019.9
20260831141420 25 322 0.0 0.0 0.00 0.00 0.00 90 1019.9
20260831140915 25 322 0.0 0.0 0.00 0.00 0.00 90 1019.8
20260831140410 24 325 0.0 0.0 0.00 0.00 0.00 90 1019.8
20260831135909 24 308 0.0 0.0 0.00 0.00 0.00 90 1019.6
20260831135408 24 305 0.0 0.0 0.00 0.00 0.00 90 1019.6
20260831134904 24 306 0.0 0.0 0.00 0.00 0.00 90 1019.8
20260831134400 23 320 0.0 0.0 0.00 0.00 0.00 93 1019.7
20260831133859 23 320 0.0 0.0 0.00 0.00 0.00 94 1019.9
20260831133354 23 320 0.0 0.0 0.00 0.00 0.00 94 1019.6
20260831132849 23 330 0.0 0.0 0.00 0.00 0.00 94 1019.7
20260831132339 22 313 0.0 0.0 0.00 0.00 0.00 95 1019.7
20260831131838 22 315 0.0 0.0 0.00 0.00 0.00 96 1020.0
20260831131334 22 317 0.0 0.0 0.00 0.00 0.00 97 1019.8
20260831130829 22 317 0.0 0.0 0.00 0.00 0.00 98 1019.9
20260831130325 22 317 0.0 0.0 0.00 0.00 0.00 99 1019.7
20260831125824 21 317 0.0 0.0 0.00 0.00 0.00 99 1019.7
20260831125319 21 317 0.0 0.0 0.00 0.00 0.00 99 1019.7
20260831124819 21 317 0.0 0.0 0.00 0.00 0.00 99 1019.7
20260831124316 21 317 0.0 0.0 0.00 0.00 0.00 99 1019.8
20260831123815 21 318 0.0 0.0 0.00 0.00 0.00 99 1019.7
20260831123314 20 318 0.0 0.0 0.00 0.00 0.00 99 1019.7
20260831122809 20 318 0.0 0.0 0.00 0.00 0.00 99 1019.8
20260831122306 20 318 0.0 0.0 0.00 0.00 0.00 99 1019.5
20260831121804 20 318 0.0 0.0 0.00 0.00 0.00 99 1019.7
20260831121302 20 318 0.0 0.0 0.00 0.00 0.00 99 1019.5
20260831120756 20 319 0.0 0.0 0.00 0.00 0.00 99 1019.2
20260831120251 20 318 0.0 0.0 0.00 0.00 0.00 99 1019.4
20260831115746 20 318 0.0 0.0 0.00 0.00 0.00 99 1019.5
20260831115242 20 318 0.0 0.0 0.00 0.00 0.00 99 1019.4
20260831114741 20 318 0.0 0.0 0.00 0.00 0.00 99 1019.2
20260831114241 20 318 0.0 0.0 0.00 0.00 0.00 99 1019.4
20260831113736 20 318 0.0 0.0 0.00 0.00 0.00 99 1019.3
20260831113231 20 318 0.0 0.0 0.00 0.00 0.00 99 1019.1